Location: Tamazert
(32.6352°N, 5.2072°W)
Time: 05:41:27
(UTC+00:00)

Vanguard 2 - Pass Details

Date: 04 October 2022
Orbit: 553 x 2933 km, 32.9° (Epoch: 26 November)

Event Time Altitude Azimuth Distance (km) Brightness Sun altitude
Rises 11:00:04 0° 217° (SW) 3,837 11.3 49.4°
Reaches altitude 10° 11:02:31 10° 209° (SSW) 3,139 11.1 49.7°
Maximum altitude 11:10:00 40° 142° (SE) 2,288 12.0 50.3°
Drops below altitude 10° 11:21:48 10° 80° (E) 4,942 11.8 51.2°
Sets 11:26:44 0° 74° (ENE) 6,275 12.2 51.6°
